Regional Weather Roundup
Issued by NWS

Home | Current Version | Previous Version | Graphics & Text | Print | Product List | Glossary On
Versions: 1 2 3 4 5 6 7 8 9 10 11 12 13 14 15 16 17 18 19 20 21 22 23 24 25 26 27 28 29 30 31 32 33 34 35 36 37 38 39 40 41 42 43 44 45 46 47 48 49 50
000
ASUS43 KLOT 010700
RWRIL

ILLINOIS REGIONAL WEATHER ROUNDUP
NATIONAL WEATHER SERVICE CHICAGO/ROMEOVILLE IL
100 AM CST SUN MAR 01 2015

NOTE: "FAIR" INDICATES FEW OR NO CLOUDS BELOW 12,000 FEET WITH NO
SIGNIFICANT WEATHER AND/OR OBSTRUCTIONS TO VISIBILITY.

* THESE STATIONS ARE NOT UNDER NWS QUALITY CONTROL. THEY ALSO MAY NOT
  REPORT WEATHER SUCH AS PRECIPITATION OR FOG.

ILZ001-002-007-009-015-016-024-010800-
NORTHWEST ILLINOIS

CITY           SKY/WX    TMP DP  RH WIND       PRES   REMARKS
MOLINE         MOCLDY     4   0  83 CALM      30.42F FOG
STERLING*      PTCLDY     9   7  92 SE3       30.42S
$$

ILZ003-004-008-010-011-017-018-010800-
NORTH CENTRAL ILLINOIS

CITY           SKY/WX    TMP DP  RH WIND       PRES   REMARKS
ROCKFORD       PTCLDY    10   6  84 CALM      30.43F FOG
FREEPORT*      FOG        6   3  86 CALM      30.43F VSB<1/4
$$

ILZ005-006-012>014-019>023-010800-
NORTHEAST ILLINOIS

CITY           SKY/WX    TMP DP  RH WIND       PRES   REMARKS
CHICAGO-OHARE  LGT SNOW  18  14  84 S7        30.42F FOG     WCI   9
CHICAGO-MIDWAY FLURRIES  20  15  81 S7        30.43F WCI  11
AURORA         MOCLDY    18  13  80 SE7       30.42F HAZE    WCI   9
LANSING*       FLURRIES  19  16  87 SE5       30.45F WCI  12
WAUKEGAN       CLOUDY    15  12  88 S3        30.42F
DUPAGE AIRPORT CLOUDY    17  13  84 S6        30.41F WCI   9
WHEELING       CLOUDY    17  13  84 S5        30.44F FOG     WCI  10
NORTHERLY ISL    N/A     20  15  81 S5          N/A  WCI  14
$$

LMZ740>746-010800-
SOUTHERN LAKE MICHIGAN

STATION/POSITION SKY/WX   TEMP    WIND        PRES    VSBY  WAVE
                          AIR SEA DIR/SP/G                  HT/PER
                          (F)     (DEG/KT/KT) (MB)    (MI)  (FT/S)
WAUKEGAN HARBOR            19     190/  8/ 21   N/A
HARRISON CRIB              20     180/ 12/ 14   N/A
BURNHAM HARBOR             19     190/  4/  9   N/A
CALUMET HARBOR             19     160/  3/  4 1029.9F
MICHIGAN CITY              17     120/  4/  5   N/A
$$

ILZ025>027-034>036-040-047-049-050-058-095>099-010800-
WEST-CENTRAL ILLINOIS

CITY           SKY/WX    TMP DP  RH WIND       PRES   REMARKS
QUINCY         LGT SNOW  21  18  88 SE3       30.39S VSB 3/4
MACOMB*        CLOUDY    20  19  96 CALM      30.43S
$$

ILZ028>032-037-038-041>044-048-051>054-059>061-010800-
CENTRAL ILLINOIS

CITY           SKY/WX    TMP DP  RH WIND       PRES   REMARKS
BLOOMINGTON    LGT SNOW  19  19 100 S6        30.41F FOG     WCI  11
DECATUR        LGT SNOW  22  20  92 E5        30.41F VSB 1   WCI  16
PEORIA         CLOUDY    22  17  81 SE6       30.41F WCI  14
SPRINGFIELD    LGT SNOW  23  19  85 E3        30.41F FOG
TAYLORVILLE    NOT AVBL
$$

ILZ033-039-045-046-055>057-062-063-010800-
EAST-CENTRAL ILLINOIS

CITY           SKY/WX    TMP DP  RH WIND       PRES   REMARKS
CHAMPAIGN      LGT SNOW  21  18  88 E6        30.40F VSB 1   WCI  13
MATTOON        LGT SNOW  24  21  88 SE3       30.39F VSB 1
$$

ILZ079-100>102-010800-
SOUTHWEST ILLINOIS

CITY           SKY/WX    TMP DP  RH WIND       PRES   REMARKS
BELLEVILLE     LGT SNOW  25  25  99 NE2       30.39F FOG
CAHOKIA*       LGT SNOW  26  24  92 N3        30.40F FOG
$$

ILZ064>066-069>071-074>076-080>082-084>086-088>090-092>094-010800-
SOUTH-CENTRAL ILLINOIS

CITY           SKY/WX    TMP DP  RH WIND       PRES   REMARKS
CARBONDALE     CLOUDY    31  23  72 SE3       30.41F
MT. VERNON     CLOUDY    28  25  86 S3        30.40F
$$

ILZ067-068-072-073-078-083-087-091-010800-
SOUTHEAST ILLINOIS

CITY           SKY/WX    TMP DP  RH WIND       PRES   REMARKS
LAWRENCEVILLE  LGT SNOW  27  26  96 SE3       30.41F FOG
$$

ABBREVIATIONS USED IN REMARKS
   TC - TEMPERATURE IN CELSIUS
  WCI - WIND CHILL INDEX
   HX - HEAT INDEX
  VSB - VISIBILITY
$$



USA.gov is the U.S. government's official web portal to all federal, state and local government web resources and services.